Chester, MD

9:05 AM EST on February 11, 2016 (GMT -0500)
Stevensville

Weather History for KW29 - January, 2013

Change the Weather History Date:

Tuesday, January 1, 2013

  Actual Average (KESN) Record (KESN)
Temperature  
Mean Temperature 40 °F -  
Max Temperature 42 °F 44 °F 66 °F (1966)
Min Temperature 37 °F 31 °F 9 °F (1963)
Degree Days  
Heating Degree Days 26    
Moisture  
Dew Point 30 °F    
Average Humidity 65    
Maximum Humidity 75    
Minimum Humidity 57    
Precipitation  
Precipitation 0.00 in - - ()
Sea Level Pressure  
Sea Level Pressure 29.98 in    
Wind  
Wind Speed 4 mph (WNW)    
Max Wind Speed 9 mph    
Max Gust Speed -    
Visibility 10 miles    
Events      
Averages and records for this station are not official NWS values.
T = Trace of Precipitation, MM = Missing Value Source: NWS Daily Summary

Daily Weather History Graph

Daily Weather History Graph

Search for Another Location

Airport or City:

Trip Planner

Search our weather history database for the weather conditions in past years. The results will help you decide how hot, cold, wet, or windy it might be!

Date:

Astronomy

Jan. 01, 2013 Rise Set
Actual Time 7:24 AM EST 4:54 PM EST
Civil Twilight 6:54 AM EST 5:23 PM EST
Nautical Twilight 6:20 AM EST 5:57 PM EST
Astronomical Twilight 5:48 AM EST 6:29 PM EST
Moon 9:20 PM EST (1/1) 9:37 AM EST (1/1)
Length of Visible Light 10h 29m
Length of Day
9h 29m
Waning Gibbous, 83% of the Moon is Illuminated
Jan 1
Waning Gibbous
Jan 4
Last Quarter
Jan 11
New
Jan 18
First Quarter
Jan 26
Full

Hourly Weather History & Observations

Time (EST) Temp. Windchill Dew Point Humidity Pressure Visibility Wind Dir Wind Speed Gust Speed Precip Events Conditions
12:14 AM 41.0 °F 38.0 °F 28.4 °F 61% 30.00 in 10.0 mi WSW 4.6 mph - N/A   Scattered Clouds
12:35 AM 41.0 °F 39.0 °F 28.4 °F 61% 29.99 in 10.0 mi WSW 3.5 mph - N/A   Scattered Clouds
12:57 AM 41.0 °F 38.0 °F 28.4 °F 61% 29.99 in 10.0 mi SW 4.6 mph - N/A   Scattered Clouds
1:18 AM 41.0 °F 38.0 °F 28.4 °F 61% 29.99 in 10.0 mi WSW 4.6 mph - N/A   Scattered Clouds
1:39 AM 41.0 °F 39.0 °F 26.6 °F 57% 30.00 in 10.0 mi SW 3.5 mph - N/A   Scattered Clouds
2:01 AM 41.0 °F 39.0 °F 28.4 °F 61% 30.00 in 10.0 mi WSW 3.5 mph - N/A   Scattered Clouds
2:22 AM 39.2 °F - 30.2 °F 70% 30.00 in 10.0 mi Calm Calm - N/A   Clear
2:43 AM 39.2 °F 37.0 °F 30.2 °F 70% 30.00 in 10.0 mi West 3.5 mph - N/A   Clear
3:04 AM 39.2 °F 37.0 °F 30.2 °F 70% 30.00 in 10.0 mi West 3.5 mph - N/A   Clear
3:26 AM 41.0 °F - 30.2 °F 65% 29.98 in 10.0 mi Calm Calm - N/A   Clear
3:47 AM 39.2 °F 37.0 °F 28.4 °F 65% 29.99 in 10.0 mi WSW 3.5 mph - N/A   Clear
4:08 AM 39.2 °F - 28.4 °F 65% 29.98 in 10.0 mi Calm Calm - N/A   Clear
4:29 AM 39.2 °F 37.0 °F 26.6 °F 61% 29.98 in 10.0 mi WSW 3.5 mph - N/A   Clear
4:51 AM 41.0 °F 39.0 °F 26.6 °F 57% 29.97 in 10.0 mi West 3.5 mph - N/A   Clear
5:12 AM 41.0 °F 39.0 °F 30.2 °F 65% 29.98 in 10.0 mi West 3.5 mph - N/A   Clear
5:33 AM 39.2 °F 37.0 °F 30.2 °F 70% 29.97 in 10.0 mi West 3.5 mph - N/A   Clear
5:55 AM 39.2 °F - 30.2 °F 70% 29.98 in 10.0 mi Calm Calm - N/A   Clear
6:16 AM 41.0 °F - 28.4 °F 61% 29.98 in 10.0 mi Calm Calm - N/A   Clear
6:37 AM 39.2 °F 35.9 °F 30.2 °F 70% 29.98 in 10.0 mi West 4.6 mph - N/A   Clear
6:58 AM 41.0 °F 37.1 °F 26.6 °F 57% 29.99 in 10.0 mi West 5.8 mph - N/A   Clear
7:20 AM 41.0 °F 36.4 °F 26.6 °F 57% 29.99 in 10.0 mi West 6.9 mph - N/A   Clear
7:41 AM 41.0 °F 36.4 °F 26.6 °F 57% 29.99 in 10.0 mi WNW 6.9 mph - N/A   Clear
8:02 AM 41.0 °F 37.1 °F 28.4 °F 61% 29.99 in 10.0 mi WNW 5.8 mph - N/A   Clear
8:23 AM 41.0 °F 36.4 °F 28.4 °F 61% 29.99 in 10.0 mi WNW 6.9 mph - N/A   Clear
8:44 AM 41.0 °F 38.0 °F 28.4 °F 61% 29.98 in 10.0 mi WNW 4.6 mph - N/A   Clear
9:06 AM 41.0 °F 39.0 °F 28.4 °F 61% 29.99 in 10.0 mi West 3.5 mph - N/A   Clear
9:27 AM 41.0 °F 39.0 °F 30.2 °F 65% 29.99 in 10.0 mi West 3.5 mph - N/A   Scattered Clouds
9:48 AM 41.0 °F 38.0 °F 30.2 °F 65% 29.99 in 10.0 mi WNW 4.6 mph - N/A   Mostly Cloudy
10:09 AM 42.8 °F 41.1 °F 30.2 °F 61% 29.99 in 10.0 mi NW 3.5 mph - N/A   Mostly Cloudy
10:31 AM 42.8 °F 39.3 °F 30.2 °F 61% 30.00 in 10.0 mi NW 5.8 mph - N/A   Mostly Cloudy
10:52 AM 42.8 °F 41.1 °F 30.2 °F 61% 29.98 in 10.0 mi West 3.5 mph - N/A   Mostly Cloudy
11:13 AM 42.8 °F - 30.2 °F 61% 29.99 in 10.0 mi Calm Calm - N/A   Overcast
11:34 AM 42.8 °F - 30.2 °F 61% 29.97 in 10.0 mi Calm Calm - N/A   Mostly Cloudy
11:55 AM 42.8 °F - 30.2 °F 61% 29.97 in 10.0 mi Calm Calm - N/A   Scattered Clouds
12:17 PM 42.8 °F - 30.2 °F 61% 29.96 in 10.0 mi Calm Calm - N/A   Scattered Clouds
12:38 PM 42.8 °F - 30.2 °F 61% 29.95 in 10.0 mi Calm Calm - N/A   Scattered Clouds
12:59 PM 42.8 °F 41.1 °F 30.2 °F 61% 29.94 in 10.0 mi SSW 3.5 mph - N/A   Scattered Clouds
1:20 PM 42.8 °F - 30.2 °F 61% 29.93 in 10.0 mi Calm Calm - N/A   Scattered Clouds
1:42 PM 42.8 °F - 30.2 °F 61% 29.92 in 10.0 mi Calm Calm - N/A   Scattered Clouds
2:03 PM 42.8 °F - 30.2 °F 61% 29.91 in 10.0 mi Calm Calm - N/A   Scattered Clouds
2:24 PM 42.8 °F 41.1 °F 30.2 °F 61% 29.93 in 10.0 mi WNW 3.5 mph - N/A   Mostly Cloudy
2:45 PM 42.8 °F 38.0 °F 32.0 °F 66% 29.92 in 10.0 mi NW 8.1 mph - N/A   Mostly Cloudy
3:07 PM 42.8 °F 39.3 °F 32.0 °F 66% 29.93 in 10.0 mi NW 5.8 mph - N/A   Scattered Clouds
3:28 PM 42.8 °F 38.6 °F 32.0 °F 66% 29.94 in 10.0 mi NW 6.9 mph - N/A   Scattered Clouds
3:49 PM 42.8 °F 38.0 °F 30.2 °F 61% 29.94 in 10.0 mi WNW 8.1 mph - N/A   Scattered Clouds
4:10 PM 42.8 °F 38.6 °F 32.0 °F 66% 29.94 in 10.0 mi NW 6.9 mph - N/A   Scattered Clouds
4:32 PM 42.8 °F 41.1 °F 32.0 °F 66% 29.94 in 10.0 mi NW 3.5 mph - N/A   Clear
4:53 PM 42.8 °F 38.0 °F 32.0 °F 66% 29.96 in 10.0 mi NW 8.1 mph - N/A   Scattered Clouds
5:14 PM 41.0 °F 37.1 °F 32.0 °F 70% 29.96 in 10.0 mi NW 5.8 mph - N/A   Mostly Cloudy
5:35 PM 41.0 °F 38.0 °F 32.0 °F 70% 29.96 in 10.0 mi NW 4.6 mph - N/A   Overcast
5:57 PM 41.0 °F 38.0 °F 32.0 °F 70% 29.97 in 10.0 mi WNW 4.6 mph - N/A   Overcast
6:18 PM 41.0 °F 37.1 °F 32.0 °F 70% 29.97 in 10.0 mi NW 5.8 mph - N/A   Mostly Cloudy
6:39 PM 41.0 °F 38.0 °F 32.0 °F 70% 29.98 in 10.0 mi NW 4.6 mph - N/A   Mostly Cloudy
7:00 PM 41.0 °F 39.0 °F 32.0 °F 70% 29.98 in 10.0 mi NW 3.5 mph - N/A   Overcast
7:21 PM 41.0 °F 39.0 °F 32.0 °F 70% 29.99 in 10.0 mi NW 3.5 mph - N/A   Overcast
7:43 PM 41.0 °F 38.0 °F 32.0 °F 70% 29.99 in 10.0 mi NW 4.6 mph - N/A   Overcast
8:04 PM 41.0 °F 36.4 °F 32.0 °F 70% 29.99 in 10.0 mi NW 6.9 mph - N/A   Overcast
8:25 PM 41.0 °F 36.4 °F 30.2 °F 65% 29.98 in 10.0 mi NW 6.9 mph - N/A   Overcast
8:46 PM 41.0 °F 36.4 °F 32.0 °F 70% 29.98 in 10.0 mi NW 6.9 mph - N/A   Overcast
9:08 PM 41.0 °F 37.1 °F 32.0 °F 70% 29.99 in 10.0 mi NNW 5.8 mph - N/A   Mostly Cloudy
9:29 PM 41.0 °F 35.2 °F 32.0 °F 70% 30.00 in 10.0 mi NNW 9.2 mph - N/A   Mostly Cloudy
9:50 PM 41.0 °F 35.8 °F 32.0 °F 70% 30.00 in 10.0 mi NNW 8.1 mph - N/A   Mostly Cloudy
10:11 PM 39.2 °F 33.0 °F 30.2 °F 70% 30.01 in 10.0 mi North 9.2 mph - N/A   Mostly Cloudy
10:33 PM 39.2 °F 33.6 °F 30.2 °F 70% 30.02 in 10.0 mi NNW 8.1 mph - N/A   Mostly Cloudy
10:54 PM 39.2 °F 33.6 °F 30.2 °F 70% 30.03 in 10.0 mi North 8.1 mph - N/A   Overcast
11:15 PM 37.4 °F 32.1 °F 30.2 °F 75% 30.02 in 10.0 mi North 6.9 mph - N/A   Mostly Cloudy
11:37 PM 37.4 °F 31.4 °F 30.2 °F 75% 30.02 in 10.0 mi North 8.1 mph - N/A   Mostly Cloudy
11:58 PM 37.4 °F 31.4 °F 30.2 °F 75% 30.01 in 10.0 mi North 8.1 mph - N/A   Mostly Cloudy